Regional Weather Roundup
Issued by NWS Raleigh/Durham, NC

Home | Current Version | Previous Version | Text Only | Print | Product List | Glossary On
Versions: 1 2 3 4 5 6 7 8 9 10 11 12 13 14 15 16 17 18 19 20 21 22 23 24 25 26 27 28 29 30 31 32 33 34 35 36 37 38 39 40 41 42 43 44 45 46 47 48 49 50
000
ASUS42 KRAH 061510
RWRRAH
NORTH CAROLINA WEATHER ROUNDUP
NATIONAL WEATHER SERVICE RALEIGH NC
1000 AM EST TUE DEC 06 2016

NOTE: "FAIR" INDICATES FEW OR NO CLOUDS BELOW 12,000 FEET WITH NO
SIGNIFICANT WEATHER AND/OR OBSTRUCTIONS TO VISIBILITY.

NCZ001-053-055-056-065-067-061600-
WESTERN NORTH CAROLINA

CITY           SKY/WX    TMP DP  RH WIND       PRES   REMARKS
ASHEVILLE      RAIN      44  41  89 S8        29.80S FOG
JEFFERSON      DRIZZLE   35  35  99 SE5       29.85F WCI  31
MORGANTON      HVY RAIN  42  42 100 NE3       29.93S
HICKORY        RAIN      42  42 100 NE10      29.87F FOG
RUTHERFORDTON  DRIZZLE   43  43 100 N7        29.87F
MOUNT AIRY     DRIZZLE   42  40  91 E16       29.93F
BOONE          LGT RAIN  35  35 100 E9G18     29.84F WCI  28
$$

NCZ021-022-025-041-071-084-088-061600-
CENTRAL NORTH CAROLINA

CITY           SKY/WX    TMP DP  RH WIND       PRES   REMARKS
CHARLOTTE      LGT RAIN  45  42  89 NE12      29.86F FOG
GREENSBORO     HVY RAIN  44  43  96 NE16      29.89F FOG
WINSTON-SALEM  LGT RAIN  43  40  89 NE10G16   29.91S FOG
RALEIGH-DURHAM LGT RAIN  46  45  96 NE10      29.91S FOG
FORT BRAGG     LGT RAIN  48  46  93 NE7       29.87S
FAYETTEVILLE   LGT RAIN  49  48  97 NE9       29.85F FOG
BURLINGTON     LGT RAIN  45  44  97 NE9       29.90F FOG
LAURINBURG     LGT RAIN  49  47  93 NE9       29.88S
$$

NCZ011-015-027-028-043-044-047-080-103-061600-
NORTHEASTERN NORTH CAROLINA

CITY           SKY/WX    TMP DP  RH WIND       PRES   REMARKS
ROCKY MT-WILSO CLOUDY    47  47 100 NE9       29.92S FOG
GREENVILLE     LGT RAIN  50  50 100 E9        29.93F
WASHINGTON     DRIZZLE   51  49  95 NE8G18    29.93R
ELIZABETH CITY LGT RAIN  52  50  93 NE15      29.95F
MANTEO         LGT RAIN  55  54  97 E15       29.95R
CAPE HATTERAS  LGT RAIN  62  59  90 E16G23    29.89F FOG
$$

NCZ078-087-090-091-093-098-101-061600-
SOUTHEASTERN NORTH CAROLINA

CITY           SKY/WX    TMP DP  RH WIND       PRES   REMARKS
LUMBERTON      LGT RAIN  49  49 100 NE7       29.84F
GOLDSBORO      LGT RAIN  50  50 100 NE12      29.87F
KINSTON        LGT RAIN  52  50  93 NE12      29.89F
KENANSVILLE    RAIN      50  48  93 NE5       29.87F FOG
NEW BERN       HVY RAIN  53  52  96 E8        29.88F FOG
CHERRY POINT   RAIN      56  54  93 NE13      29.88S FOG
BEAUFORT       RAIN      64  62  93 SE12      29.87F FOG
JACKSONVILLE   RAIN      55  55 100 NE7       29.85F FOG
WILMINGTON     RAIN      60  60 100 NE12      29.81F FOG
$$




USA.gov is the U.S. government's official web portal to all federal, state and local government web resources and services.